Regional Weather Roundup
Issued by NWS

Home | Current Version | Previous Version | Text Only | Print | Product List | Glossary Off
Versions: 1 2 3 4 5 6 7 8 9 10 11 12 13 14 15 16 17 18 19 20 21 22 23 24 25 26 27 28 29 30 31 32 33 34 35 36 37 38 39 40 41 42 43 44 45 46 47 48 49 50

000
ASUS43 KMKX 020700
RWRWI

WISCONSIN REGIONAL WEATHER ROUNDUP
NATIONAL WEATHER SERVICE MILWAUKEE/SULLIVAN WI
200 AM CDT TUE SEP 02 2014

NOTE: "FAIR" INDICATES FEW OR NO CLOUDS BELOW 12,000 FEET WITH NO
SIGNIFICANT WEATHER AND/OR OBSTRUCTIONS TO VISIBILITY.

WIZ001-002-006>008-014>016-023>028-020800-
NORTHWEST WISCONSIN

CITY           SKY/WX    TMP DP  RH WIND       PRES   REMARKS
SUPERIOR ARPT  CLEAR     52  51  97 SW3       29.76S
ASHLAND        PTCLDY    54  51  90 SW6       29.77S
HAYWARD        PTCLDY    53  52  96 CALM      29.81R
SIREN          CLEAR     56  55  94 CALM      29.80R
RICE LAKE      CLEAR     57  55  93 CALM      29.83S
LADYSMITH      CLEAR     55  54  95 CALM      29.84R
EAU CLAIRE     NOT AVBL
MENOMONIE      SUNNY     58  56  94 CALM      29.83R
NEW RICHMOND   PTCLDY    59  58  96 S5        29.83S
OSCEOLA        CLEAR     58  58 100 CALM      29.84S
$$

WIZ003>005-009-010-017-018-020800-
NORTH CENTRAL WISCONSIN

CITY           SKY/WX    TMP DP  RH WIND       PRES   REMARKS
WOODRUFF       CLEAR     55  53  92 CALM      29.82R
RHINELANDER    CLEAR     51  50  96 CALM      29.83S
EAGLE RIVER    CLEAR     52  52 100 CALM      29.81S
LAND O LAKES   CLEAR     47  47 100 CALM      29.82S FOG
PHILLIPS       CLEAR     52  51  99 CALM      29.81S
TOMAHAWK         N/A     48  47  97 CALM      29.83S FOG
MEDFORD        CLEAR     53  52  97 S5        29.83F
MERRILL        CLEAR     50  50 100 CALM      29.83F
$$

WIZ029-030-035-036-043>047-020800-
CENTRAL WISCONSIN

CITY           SKY/WX    TMP DP  RH WIND       PRES   REMARKS
WAUSAU         CLEAR     55  54  96 SE3       29.82F
MOSINEE        CLEAR     54  54 100 S3        29.85F
MARSHFIELD     CLEAR     55  53  93 SW6       29.85S
STEVENS POINT  CLEAR     55  54  97 CALM      29.85F
WAUPACA        CLEAR     59  58  95 CALM      29.84F
WAUTOMA        NOT AVBL
WISC RAPIDS    FOG       56  55  97 CALM      29.86S VSB 3/4
CAMP DOUGLAS   FOG       54  54 100 CALM      29.85F VSB 3/4
$$

WIZ011>013-019>022-031-037>040-048>050-020800-
NORTHEAST WISCONSIN

CITY           SKY/WX    TMP DP  RH WIND       PRES   REMARKS
ANTIGO         CLEAR     50  50  99 S3        29.85R
STURGEON BAY   CLEAR     63  55  77 W6        29.82R
GREEN BAY      CLEAR     58  57  97 W6        29.83R
MANITOWOC      NOT AVBL
APPLETON       CLEAR     59  59 100 W6        29.84S
CLINTONVILLE   CLEAR     59  55  88 W3        29.83S
OSHKOSH        PTCLDY    63  60  90 W3        29.84S
$$

WIZ032>034-041-042-053>061-020800-
SOUTHWEST WISCONSIN

CITY           SKY/WX    TMP DP  RH WIND       PRES   REMARKS
LA CROSSE      CLEAR     63  60  90 S6        29.85S
SPARTA         CLEAR     54  53  97 CALM      29.87R
VIROQUA        FAIR      57  57 100 CALM      29.88F
BOSCOBEL       FOG       61  60  97 SW3       29.88R VSB 3/4
PRAIRIE DU CHI CLEAR     60  58  94 SE3       29.88R
PLATTEVILLE    FAIR      64  61  91 CALM      29.88S
$$

WIZ056-057-062-063-064-067-068-020800-
SOUTH CENTRAL WISCONSIN

CITY           SKY/WX    TMP DP  RH WIND       PRES   REMARKS
BARABOO/DELLS  CLEAR     60  58  93 CALM      29.86F
LONE ROCK      PTCLDY    61  57  87 S3        29.86F FOG
WATERTOWN      MOCLDY    62  62 100 CALM      29.84F
MADISON        CLEAR     61  58  90 CALM      29.85F
MIDDLETON      FAIR      62  62  99 CALM      29.86F
MONROE         CLEAR     66  61  82 W7        29.86S
JANESVILLE     PTCLDY    64  63  94 CALM      29.85F
$$

WIZ051-052-058>065-066-070>072-020800-
SOUTHEAST WISCONSIN

CITY           SKY/WX    TMP DP  RH WIND       PRES   REMARKS
MILWAUKEE      MOCLDY    67  64  90 SW5       29.85R
WAUKESHA       CLOUDY    61  61 100 CALM      29.86F
MILWAUKEE/TIMM MOCLDY    64  61  88 CALM      29.85F
RACINE         MOCLDY    66  64  93 SW3       29.87F
BURLINGTON     MOCLDY    63  62  98 CALM      29.85S
KENOSHA        MOCLDY    67  66  97 SW3       29.85F
FOND DU LAC    PTCLDY    62  59  90 W5        29.85R
SHEBOYGAN      NOT AVBL
WEST BEND      PTCLDY    63  59  88 CALM      29.85S
JUNEAU         PTCLDY    61  61  99 W3        29.86F FOG
$$

LSZ147-162-020800-
LAKE SUPERIOR

STATION/POSITION TIME  TEMP    WIND        PRES    WAVE
                       AIR SEA DIR/SP/G            HT/PER
                 (UTC) (F)     (DEG/KT/KT) (MB)    (FT/S)
W MID LAKE BUOY  0550   61 57  250/ 10/ 12 1006.3R   1/ 3
DEVILS ISLAND    0600   63     240/ 11/ 13 1007.0R
PORT WING        0600   58     150/  2/  4 1007.5F
SAXON HARBOR     0600   58     190/  7/ 10 1008.1R
$$

LMZ867-665-643>646-020800-
LAKE MICHIGAN

STATION/POSITION TIME  TEMP    WIND        PRES    WAVE
                       AIR SEA DIR/SP/G            HT/PER
                 (UTC) (F)     (DEG/KT/KT) (MB)    (FT/S)
N MID LAKE BUOY  0550   66 65  230/  6/  6 1008.1R   2/ 6
NORTHPORT PIER   0600   63     240/  5/  7 1008.5R
KEWAUNEE LAKESHO 0600   63     290/  4/  7 1008.5R
SHEBOYGAN LAKESH 0600   65 51  250/  7/  8 1010.1R
ATWATER BUOY     0600   68     250/  6/  8 1011.8R
MILWAUKEE LAKESH 0600   71     290/  6/  8   N/A
S MID LAKE BUOY  0550   71 70  250/  8/  8 1010.4R   1/ 3
KENOSHA   LAKESH 0600   70     250/  5/  7 1010.8R
$$

TC  - TEMPERATURE IN CELSIUS
VSB - VISIBILITY IN STATUTE MILES
WCI - WIND CHILL INDEX
HX  - HEAT INDEX



USA.gov is the U.S. government's official web portal to all federal, state and local government web resources and services.